• en Belgique
  • Liste des pays
  • À 7 jours
  • Température de l'eau
  • Carte satellitaire
  • Carte météo
  • Widgets météo
  • user-avatar
    Se connecter

    Météo par heure à Hobart

    Ce jour, 21 Octobre, Samedi

    Heure Température Précipitation Vent Pression Humidité
    00:00 +7°C° 0 mm 5 m/s 752 mmHg 80%
    01:00 +7°C° 0 mm 5 m/s 752 mmHg 82%
    02:00 +7°C° 0 mm 5 m/s 752 mmHg 82%
    03:00 +7°C° 0 mm 5 m/s 751 mmHg 82%
    04:00 +8°C° 0 mm 5 m/s 751 mmHg 83%
    05:00 +8°C° 0 mm 5 m/s 751 mmHg 81%
    06:00 +9°C° 0 mm 5 m/s 750 mmHg 79%
    07:00 +10°C° 0 mm 5 m/s 750 mmHg 77%
    08:00 +12°C° 0 mm 5 m/s 750 mmHg 73%
    09:00 +13°C° 0 mm 5 m/s 750 mmHg 69%
    10:00 +16°C° 0 mm 3 m/s 749 mmHg 60%
    11:00 +15°C° 0 mm 4 m/s 749 mmHg 61%
    12:00 +15°C° 0 mm 4 m/s 748 mmHg 62%
    13:00 +14°C° 0 mm 5 m/s 748 mmHg 63%
    14:00 +14°C° 0 mm 5 m/s 747 mmHg 64%
    15:00 +14°C° 0 mm 5 m/s 747 mmHg 66%
    16:00 +14°C° 0 mm 5 m/s 746 mmHg 67%
    17:00 +13°C° 0 mm 4 m/s 746 mmHg 72%
    18:00 +12°C° 0 mm 4 m/s 746 mmHg 77%
    19:00 +11°C° 0 mm 3 m/s 746 mmHg 82%
    20:00 +11°C° 0,1 mm 3 m/s 746 mmHg 84%
    21:00 +11°C° 0,1 mm 3 m/s 746 mmHg 87%
    22:00 +11°C° 0,1 mm 4 m/s 746 mmHg 89%
    23:00 +10°C° 0,2 mm 4 m/s 745 mmHg 91%

    Demain, 22 Octobre, Dimanche

    Heure Température Précipitation Vent Pression Humidité
    00:00 +10°C° 0,2 mm 4 m/s 745 mmHg 93%
    01:00 +10°C° 0,2 mm 4 m/s 745 mmHg 94%
    02:00 +10°C° 0,1 mm 4 m/s 745 mmHg 94%
    03:00 +10°C° 0,1 mm 4 m/s 744 mmHg 95%
    04:00 +10°C° 0,1 mm 4 m/s 744 mmHg 95%
    05:00 +10°C° 0,1 mm 4 m/s 744 mmHg 93%
    06:00 +10°C° 0,1 mm 4 m/s 745 mmHg 92%
    07:00 +11°C° 0,1 mm 4 m/s 745 mmHg 90%
    08:00 +11°C° 0,1 mm 4 m/s 745 mmHg 84%
    09:00 +12°C° 0,1 mm 5 m/s 745 mmHg 78%
    10:00 +13°C° 0,1 mm 5 m/s 745 mmHg 71%
    11:00 +13°C° 0 mm 5 m/s 745 mmHg 68%
    12:00 +13°C° 0 mm 5 m/s 745 mmHg 65%
    13:00 +14°C° 0 mm 4 m/s 745 mmHg 61%
    14:00 +14°C° 0 mm 4 m/s 745 mmHg 60%
    15:00 +14°C° 0 mm 4 m/s 745 mmHg 60%
    16:00 +14°C° 0 mm 4 m/s 745 mmHg 59%
    17:00 +13°C° 0 mm 4 m/s 745 mmHg 65%
    18:00 +12°C° 0 mm 3 m/s 746 mmHg 71%
    19:00 +10°C° 0 mm 3 m/s 746 mmHg 78%
    20:00 +10°C° 0 mm 3 m/s 746 mmHg 81%
    21:00 +9°C° 0 mm 3 m/s 746 mmHg 84%
    22:00 +9°C° 0 mm 3 m/s 746 mmHg 87%
    23:00 +9°C° 0 mm 3 m/s 746 mmHg 87%

    Après-demain, 23 Octobre, Lundi

    Heure Température Précipitation Vent Pression Humidité
    00:00 +10°C° 0 mm 3 m/s 746 mmHg 86%
    01:00 +10°C° 0 mm 3 m/s 746 mmHg 86%
    02:00 +10°C° 0 mm 3 m/s 746 mmHg 86%
    03:00 +10°C° 0 mm 3 m/s 745 mmHg 87%
    04:00 +11°C° 0 mm 3 m/s 745 mmHg 87%
    05:00 +11°C° 0 mm 3 m/s 746 mmHg 85%
    06:00 +12°C° 0 mm 3 m/s 746 mmHg 83%
    07:00 +14°C° 0 mm 2 m/s 746 mmHg 81%
    08:00 +16°C° 0 mm 3 m/s 746 mmHg 75%
    09:00 +17°C° 0 mm 3 m/s 746 mmHg 68%
    10:00 +19°C° 0 mm 3 m/s 746 mmHg 62%
    11:00 +19°C° 0,3 mm 3 m/s 746 mmHg 65%
    12:00 +19°C° 0,3 mm 3 m/s 746 mmHg 67%
    13:00 +19°C° 0,3 mm 3 m/s 746 mmHg 70%
    14:00 +18°C° 0,4 mm 3 m/s 745 mmHg 73%
    15:00 +17°C° 0,4 mm 2 m/s 745 mmHg 76%
    16:00 +16°C° 0,4 mm 2 m/s 745 mmHg 80%
    17:00 +15°C° 0,1 mm 2 m/s 745 mmHg 84%
    18:00 +14°C° 0,1 mm 2 m/s 746 mmHg 88%
    19:00 +13°C° 0,1 mm 1 m/s 746 mmHg 92%
    20:00 +13°C° 0 mm 2 m/s 746 mmHg 93%
    21:00 +12°C° 0 mm 2 m/s 746 mmHg 94%
    22:00 +12°C° 0 mm 2 m/s 747 mmHg 94%
    23:00 +10°C° 0 mm 2 m/s 747 mmHg 95%

    24 Octobre, Mardi

    Heure Température Précipitation Vent Pression Humidité
    00:00 +10°C° 0 mm 2 m/s 747 mmHg 95%
    01:00 +10°C° 0 mm 3 m/s 747 mmHg 95%
    02:00 +9°C° 0 mm 3 m/s 747 mmHg 95%
    03:00 +8°C° 0 mm 3 m/s 746 mmHg 96%
    04:00 +8°C° 0 mm 3 m/s 746 mmHg 97%
    05:00 +8°C° 0 mm 3 m/s 747 mmHg 93%
    06:00 +9°C° 0 mm 3 m/s 747 mmHg 90%
    07:00 +9°C° 0 mm 2 m/s 748 mmHg 86%
    08:00 +12°C° 0 mm 2 m/s 748 mmHg 76%
    09:00 +12°C° 0 mm 3 m/s 748 mmHg 66%
    10:00 +14°C° 0 mm 3 m/s 748 mmHg 56%
    11:00 +16°C° 0 mm 3 m/s 748 mmHg 52%
    12:00 +17°C° 0 mm 3 m/s 748 mmHg 48%
    13:00 +18°C° 0 mm 3 m/s 747 mmHg 44%
    14:00 +17°C° 0 mm 3 m/s 747 mmHg 47%
    15:00 +17°C° 0 mm 4 m/s 747 mmHg 50%
    16:00 +15°C° 0 mm 4 m/s 747 mmHg 53%
    17:00 +13°C° 0 mm 3 m/s 747 mmHg 62%
    18:00 +12°C° 0 mm 2 m/s 748 mmHg 72%
    19:00 +9°C° 0 mm 2 m/s 748 mmHg 81%
    20:00 +8°C° 0 mm 2 m/s 748 mmHg 84%
    21:00 +9°C° 0 mm 1 m/s 748 mmHg 88%
    22:00 +8°C° 0 mm 1 m/s 749 mmHg 92%
    23:00 +8°C° 0 mm 1 m/s 748 mmHg 93%

    25 Octobre, Mercredi

    Heure Température Précipitation Vent Pression Humidité
    00:00 +7°C° 0 mm 1 m/s 748 mmHg 95%
    01:00 +7°C° 0 mm 1 m/s 748 mmHg 96%
    02:00 +7°C° 0 mm 1 m/s 748 mmHg 97%
    03:00 +6°C° 0 mm 1 m/s 748 mmHg 97%
    04:00 +6°C° 0 mm 1 m/s 747 mmHg 97%
    05:00 +7°C° 0 mm 1 m/s 747 mmHg 92%
    06:00 +8°C° 0 mm 1 m/s 747 mmHg 87%
    07:00 +9°C° 0 mm 1 m/s 748 mmHg 82%
    08:00 +12°C° 0 mm 1 m/s 747 mmHg 68%
    09:00 +15°C° 0 mm 1 m/s 747 mmHg 54%
    10:00 +20°C° 0 mm 1 m/s 747 mmHg 39%
    11:00 +20°C° 0 mm 1 m/s 747 mmHg 38%
    12:00 +20°C° 0 mm 2 m/s 746 mmHg 37%
    13:00 +20°C° 0 mm 2 m/s 746 mmHg 35%
    14:00 +19°C° 0 mm 2 m/s 746 mmHg 41%
    15:00 +18°C° 0 mm 3 m/s 745 mmHg 46%
    16:00 +17°C° 0 mm 3 m/s 745 mmHg 51%
    17:00 +15°C° 0 mm 2 m/s 745 mmHg 61%
    18:00 +13°C° 0 mm 2 m/s 746 mmHg 70%
    19:00 +12°C° 0 mm 1 m/s 746 mmHg 80%
    20:00 +10°C° 0 mm 1 m/s 746 mmHg 85%
    21:00 +9°C° 0 mm 1 m/s 746 mmHg 90%
    22:00 +7°C° 0 mm 0 m/s 746 mmHg 95%
    23:00 +8°C° 0 mm 1 m/s 746 mmHg 95%

    26 Octobre, Jeudi

    Heure Température Précipitation Vent Pression Humidité
    00:00 +8°C° 0 mm 1 m/s 746 mmHg 96%
    01:00 +8°C° 0 mm 1 m/s 745 mmHg 96%
    02:00 +8°C° 0 mm 1 m/s 745 mmHg 97%
    03:00 +7°C° 0 mm 1 m/s 745 mmHg 97%
    04:00 +7°C° 0 mm 1 m/s 744 mmHg 97%
    05:00 +9°C° 0 mm 1 m/s 745 mmHg 91%
    06:00 +10°C° 0 mm 1 m/s 745 mmHg 85%
    07:00 +11°C° 0 mm 1 m/s 745 mmHg 79%
    08:00 +14°C° 0 mm 1 m/s 745 mmHg 66%
    09:00 +18°C° 0 mm 1 m/s 745 mmHg 53%
    10:00 +21°C° 0 mm 1 m/s 745 mmHg 40%
    11:00 +21°C° 0 mm 1 m/s 744 mmHg 38%
    12:00 +21°C° 0 mm 2 m/s 744 mmHg 36%
    13:00 +22°C° 0 mm 3 m/s 744 mmHg 34%
    14:00 +21°C° 0 mm 3 m/s 744 mmHg 37%
    15:00 +20°C° 0 mm 3 m/s 744 mmHg 40%
    16:00 +20°C° 0 mm 3 m/s 743 mmHg 43%
    17:00 +17°C° 0 mm 3 m/s 744 mmHg 52%
    18:00 +15°C° 0 mm 2 m/s 744 mmHg 61%
    19:00 +12°C° 0 mm 1 m/s 744 mmHg 69%
    20:00 +10°C° 0 mm 2 m/s 744 mmHg 72%
    21:00 +9°C° 0 mm 2 m/s 745 mmHg 75%
    22:00 +7°C° 0 mm 2 m/s 745 mmHg 78%
    23:00 +7°C° 0 mm 2 m/s 745 mmHg 80%
    Voir plus